Home > Weather > Portsmouth > Past weeks

Flag for U.S.A. Weather for the Past 2 Weeks in Portsmouth, Virginia, U.S.A.

Now
38 °F

Overcast.


Feels Like: 27 °F
Forecast: 31 / 43 °F
Wind: 23 mph from West

Location: Norfolk Naval Air Station

Current Time: Feb 9, 2016 at 11:49:29 PM

Latest Report: Feb 9, 2016 at 10:59 PM


Visibility: 10 mi

Pressure: 29.74 "Hg

Humidity: 43%

Dew point: 17 °F

Location of PortsmouthLocation

Historic Weather in Portsmouth — Graph

°F

Portsmouth Temperature Yesterday

Maximum temperature yesterday: 46 °F (at 12:59 PM)
Minimum temperature yesterday: 38 °F (at 6:59 AM)
Average temperature yesterday: 42 °F

High & Low Weather Summary for the Past Weeks

 TemperatureHumidityPressure
High76 °F (Feb 3, 11:59 AM)94% (Feb 4, 1:59 AM)30.49 "Hg (Feb 4, 1:59 AM)
Low27 °F (Jan 30, 6:59 AM)26% (Jan 30, 1:59 PM)29.55 "Hg (Feb 9, 3:59 AM)
Average47 °F66%30.03 "Hg
* Reported Jan 25 10:59 PM — Feb 9 10:59 PM, Portsmouth, Weather by CustomWeather, © 2016

Note: Actual official high and low records may vary slightly from our data, if they occured in-between our weather recording intervals... More about our weather records

Advertising

Portsmouth Weather History for the Previous 24 Hours

 ConditionsComfort  
Time TempWeatherWind HumidityBarometerVisibility
10:59 PM
Tue, Feb 9
38 °FOvercast.23 mph43%29.74 "Hg10 mi
9:59 PM39 °FOvercast.17 mph41%29.73 "Hg10 mi
8:59 PM41 °FMostly cloudy.18 mph43%29.72 "Hg10 mi
7:59 PM43 °FMostly cloudy.12 mph45%29.69 "Hg10 mi
6:59 PM44 °FMostly cloudy.15 mph47%29.66 "Hg10 mi
5:59 PM44 °FPartly cloudy.9 mph51%29.63 "Hg10 mi
4:59 PM45 °FBroken clouds.12 mph51%29.61 "Hg10 mi
3:59 PM46 °FCloudy.13 mph51%29.59 "Hg10 mi
2:59 PM47 °FBroken clouds.14 mph46%29.56 "Hg10 mi
1:59 PM47 °FBroken clouds.16 mph48%29.56 "Hg10 mi
12:59 PM48 °FBroken clouds.14 mph50%29.57 "Hg10 mi
11:59 AM46 °FBroken clouds.12 mph66%29.60 "Hg10 mi
10:59 AM42 °FBroken clouds.10 mph76%29.61 "Hg10 mi
9:59 AM41 °FCloudy.8 mph86%29.61 "Hg7 mi
8:59 AM40 °FCloudy.7 mph86%29.60 "Hg7 mi
7:59 AM40 °FBroken clouds.13 mph86%29.59 "Hg7 mi
6:59 AM40 °FPassing clouds.7 mph86%29.57 "Hg7 mi
5:59 AM41 °FPartly cloudy.12 mph89%29.56 "Hg7 mi
4:59 AM42 °FMostly cloudy.5 mph89%29.56 "Hg9 mi
3:59 AM42 °FOvercast.3 mph89%29.55 "Hg9 mi
2:59 AM43 °FMostly cloudy.3 mph86%29.57 "Hg10 mi
1:59 AM43 °FOvercast.3 mph89%29.59 "Hg9 mi
12:59 AM43 °FOvercast.5 mph86%29.59 "Hg10 mi
11:59 PM
Mon, Feb 8
43 °FLight rain. Mostly cloudy.5 mph82%29.64 "Hg6 mi
Weather by CustomWeather, © 2016

See weather overviewHow to use our weather pages